EW6511 Weather Reports


Display with metric or nautical units.
time (UTC)temp
F
wind
direction
speed
MPH
gust
MPH
rain 1hr
in
rain 24hr
in
rain mn
in
humidity
%
barometer
mb
20260901160751 74 247 3.0 7.0 0.00 0.00 0.00 35 1023.6
20260901155749 74 302 4.0 9.0 0.00 0.00 0.00 36 1023.5
20260901154748 74 249 3.0 9.0 0.00 0.00 0.00 34 1023.5
20260901153749 74 277 3.0 10.0 0.00 0.00 0.00 36 1023.6
20260901151748 74 321 4.0 8.0 0.00 0.00 0.00 35 1023.6
20260901145746 73 306 5.0 10.0 0.00 0.00 0.00 36 1023.5
20260901144748 74 254 4.0 9.0 0.00 0.00 0.00 38 1023.6
20260901143749 73 280 7.0 12.0 0.00 0.00 0.00 37 1023.5
20260901142743 74 279 3.0 9.0 0.00 0.00 0.00 35 1023.5
20260901141742 74 244 4.0 10.0 0.00 0.00 0.00 38 1023.5
20260901140739 74 258 2.0 9.0 0.00 0.00 0.00 35 1023.6
20260901135738 73 276 3.0 9.0 0.00 0.00 0.00 37 1023.6
20260901133733 73 333 8.0 12.0 0.00 0.00 0.00 40 1023.7
20260901131729 73 290 1.0 3.0 0.00 0.00 0.00 39 1024.0
20260901130729 72 264 4.0 9.0 0.00 0.00 0.00 43 1024.0
20260901125729 72 269 7.0 12.0 0.00 0.00 0.00 40 1024.1
20260901124728 72 288 8.0 15.0 0.00 0.00 0.00 44 1024.3
20260901123730 72 355 8.0 12.0 0.00 0.00 0.00 40 1024.4
20260901122729 72 281 4.0 10.0 0.00 0.00 0.00 42 1024.3
20260901121730 71 280 4.0 8.0 0.00 0.00 0.00 42 1024.3
20260901120729 71 279 7.0 11.0 0.00 0.00 0.00 41 1024.4
20260901115729 71 327 6.0 11.0 0.00 0.00 0.00 41 1024.4
20260901114729 71 304 4.0 9.0 0.00 0.00 0.00 44 1024.4
20260901113728 71 223 3.0 8.0 0.00 0.00 0.00 44 1024.3
20260901112741 70 33 5.0 8.0 0.00 0.00 0.00 45 1024.4
20260901111728 71 0 3.0 10.0 0.00 0.00 0.00 48 1024.5
20260901110727 70 355 3.0 8.0 0.00 0.00 0.00 47 1024.6
20260901105727 70 291 5.0 12.0 0.00 0.00 0.00 49 1024.6
20260901104724 69 344 5.0 10.0 0.00 0.00 0.00 47 1024.5
20260901103734 69 327 4.0 11.0 0.00 0.00 0.00 47 1024.5
20260901102725 69 351 3.0 5.0 0.00 0.00 0.00 48 1024.7
20260901101725 69 329 2.0 5.0 0.00 0.00 0.00 50 1024.8
20260901095725 68 314 4.0 9.0 0.00 0.00 0.00 53 1024.9
20260901094725 68 212 3.0 5.0 0.00 0.00 0.00 50 1024.9
20260901093725 68 25 1.0 4.0 0.00 0.00 0.00 51 1025.0
20260901092720 67 290 3.0 5.0 0.00 0.00 0.00 51 1025.0
20260901091720 67 290 2.0 4.0 0.00 0.00 0.00 53 1025.0
20260901090720 68 290 1.0 3.0 0.00 0.00 0.00 51 1025.1
20260901085718 67 290 1.0 5.0 0.00 0.00 0.00 52 1025.0
20260901084718 66 276 0.0 2.0 0.00 0.00 0.00 55 1025.0
20260901081720 63 276 1.0 4.0 0.00 0.00 0.00 58 1025.0
20260901080720 63 276 3.0 6.0 0.00 0.00 0.00 59 1025.1
20260901075716 62 277 2.0 6.0 0.00 0.00 0.00 60 1024.9
20260901074718 62 271 0.0 4.0 0.00 0.00 0.00 63 1024.8
20260901073716 61 269 0.0 0.0 0.00 0.00 0.00 62 1024.8
20260901071716 61 267 0.0 0.0 0.00 0.00 0.00 62 1024.6
20260901070718 60 267 0.0 0.0 0.00 0.00 0.00 62 1024.5
20260901065716 60 267 0.0 1.0 0.00 0.00 0.00 63 1024.6
20260901064718 59 213 0.0 0.0 0.00 0.00 0.00 64 1024.6
20260901063714 58 213 0.0 0.0 0.00 0.00 0.00 62 1024.5
20260901062716 59 213 0.0 0.0 0.00 0.00 0.00 62 1024.5
20260901061714 58 213 0.0 0.0 0.00 0.00 0.00 61 1024.4
20260901060716 58 213 0.0 0.0 0.00 0.00 0.00 63 1024.5
20260901055715 57 213 0.0 0.0 0.00 0.00 0.00 65 1024.5
20260901054714 56 213 0.0 0.0 0.00 0.00 0.00 66 1024.4
20260901053714 54 213 0.0 0.0 0.00 0.00 0.00 67 1024.5
20260901052715 53 213 0.0 0.0 0.00 0.00 0.00 68 1024.4
20260901051715 53 213 0.0 0.0 0.00 0.00 0.00 68 1024.5
20260901050709 53 213 0.0 0.0 0.00 0.00 0.00 68 1024.6
20260901044709 53 213 0.0 0.0 0.00 0.00 0.00 68 1024.5
20260901043710 53 213 0.0 0.0 0.00 0.00 0.00 67 1024.5
20260901042708 53 213 0.0 0.0 0.00 0.00 0.00 68 1024.6
20260901041708 53 213 0.0 0.0 0.00 0.00 0.00 68 1024.5
20260901040705 54 213 0.0 0.0 0.00 0.00 0.00 66 1024.4
20260901035706 55 213 0.0 0.0 0.00 0.01 0.00 66 1024.5
20260901034707 55 213 0.0 0.0 0.00 0.01 0.00 65 1024.5
20260901033705 55 213 0.0 0.0 0.00 0.01 0.00 65 1024.5
20260901032708 55 213 0.0 0.0 0.00 0.01 0.00 65 1024.5
20260901031704 56 213 0.0 0.0 0.00 0.01 0.00 64 1024.5
20260901030706 56 213 0.0 0.0 0.00 0.01 0.00 64 1024.4
20260901025706 56 213 0.0 0.0 0.00 0.01 0.00 64 1024.4
20260901024704 56 213 0.0 0.0 0.00 0.01 0.00 63 1024.5
20260901023704 57 213 0.0 0.0 0.00 0.01 0.00 62 1024.5
20260901022700 57 213 0.0 0.0 0.00 0.01 0.00 62 1024.5
20260901021701 58 213 0.0 0.0 0.00 0.01 0.00 60 1024.5
20260901020659 58 213 0.0 0.0 0.00 0.01 0.00 60 1024.5
20260901013659 58 213 0.0 0.0 0.00 0.01 0.00 60 1024.6
20260901012659 58 213 0.0 1.0 0.00 0.01 0.00 60 1024.6
20260901005658 58 213 0.0 0.0 0.00 0.01 0.00 61 1024.7
20260901004659 58 213 0.0 0.0 0.00 0.01 0.00 61 1024.6
20260901003708 58 213 1.0 4.0 0.00 0.01 0.00 61 1024.6
20260901001655 59 215 0.0 0.0 0.00 0.01 0.00 60 1024.7
20260831235656 59 215 1.0 3.0 0.00 0.01 0.00 59 1024.6
20260831234657 59 215 2.0 3.0 0.00 0.01 0.00 59 1024.6
20260831233657 59 215 1.0 2.0 0.00 0.02 0.00 59 1024.7
20260831232655 59 215 1.0 3.0 0.00 0.02 0.00 59 1024.7
20260831231657 60 215 2.0 3.0 0.00 0.02 0.00 59 1024.6
20260831230656 60 215 1.0 3.0 0.00 0.02 0.00 59 1024.6
20260831225657 60 215 0.0 0.0 0.00 0.03 0.00 57 1024.7
20260831224651 60 215 1.0 2.0 0.00 0.05 0.00 58 1024.7
20260831223649 60 215 2.0 3.0 0.00 0.05 0.00 57 1024.7
20260831222650 61 215 1.0 3.0 0.00 0.05 0.00 56 1024.8
20260831220648 61 215 0.0 3.0 0.00 0.05 0.00 56 1024.8
20260831215649 62 215 0.0 2.0 0.00 0.05 0.05 55 1024.9
20260831214647 62 215 1.0 3.0 0.00 0.05 0.05 54 1024.8
20260831213649 63 215 1.0 3.0 0.00 0.05 0.05 53 1024.9
20260831211643 63 215 1.0 3.0 0.00 0.05 0.05 52 1024.8
20260831210642 63 215 0.0 2.0 0.00 0.05 0.05 52 1024.8
20260831205642 64 215 0.0 2.0 0.00 0.05 0.05 51 1024.7
20260831204642 64 215 1.0 3.0 0.00 0.05 0.05 50 1024.7
20260831203642 65 215 2.0 4.0 0.00 0.05 0.05 50 1024.6
20260831201642 65 216 1.0 3.0 0.00 0.05 0.05 50 1024.5
20260831200643 65 216 2.0 4.0 0.00 0.05 0.05 48 1024.4
20260831195642 65 220 2.0 4.0 0.00 0.05 0.05 48 1024.4
20260831194639 65 229 2.0 4.0 0.00 0.05 0.05 47 1024.4
20260831193639 66 227 2.0 4.0 0.00 0.05 0.05 47 1024.3
20260831192640 66 228 2.0 3.0 0.00 0.05 0.05 47 1024.1
20260831191640 66 227 2.0 3.0 0.00 0.05 0.05 46 1024.2
20260831190639 67 227 2.0 4.0 0.00 0.05 0.05 47 1024.1
20260831185639 67 238 3.0 6.0 0.00 0.05 0.05 45 1024.0
20260831184640 67 253 4.0 7.0 0.00 0.05 0.05 45 1023.7
20260831183639 67 254 5.0 10.0 0.00 0.05 0.05 45 1023.6
20260831181637 68 257 10.0 15.0 0.00 0.05 0.05 43 1023.4
20260831180636 69 284 7.0 14.0 0.00 0.05 0.05 43 1023.3
20260831175636 69 265 8.0 14.0 0.00 0.05 0.05 42 1023.2
20260831174639 70 263 11.0 18.0 0.00 0.05 0.05 42 1023.0
20260831173638 70 284 12.0 19.0 0.00 0.05 0.05 41 1023.0
20260831172635 71 258 10.0 17.0 0.00 0.05 0.05 42 1022.9
20260831171635 71 284 11.0 17.0 0.00 0.05 0.05 42 1022.8
20260831164630 71 256 14.0 23.0 0.00 0.05 0.05 40 1022.6
20260831162626 73 277 13.0 20.0 0.00 0.05 0.05 39 1022.3
20260831161627 73 303 14.0 24.0 0.00 0.05 0.05 37 1022.3